Preston, Minnesota, United States (55965)
Lat: 43.67N, Lon: 92.08W
Wx Zone: MNZ095
Local Info
Past Weather Observations for Today

NOTE: This archive is for the closest National Weather Service station to Preston. Information may differ from the station used for current weather conditions.

Click here for Long-term Archive

Time Weather Temperature Dewpoint Humidity Pressure Winds Precip Visibility
15:34
Clear
77°F / 25°C 57°F / 14°C 51% 30.04 in
(1017 mb)
W 9.2 mph
(W 15 kph)
- 10SM
15:15
Clear
77°F / 25°C 57°F / 14°C 51% 30.04 in
(1017 mb)
SSW 11.5 mph
(SSW 19 kph)
- 10SM
14:54
Clear
77°F / 25°C 57°F / 14°C 51% 30.04 in
(1017 mb)
SSW 11.5 mph
(SSW 19 kph)
- 10SM
14:35
Clear
77°F / 25°C 57°F / 14°C 51% 30.04 in
(1017 mb)
SSW 10.4 mph
(SSW 17 kph)
- 10SM
14:14
Clear
77°F / 25°C 59°F / 15°C 54% 30.04 in
(1017 mb)
SSW 11.5 mph
(SSW 19 kph)
- 10SM
13:54
Clear
77°F / 25°C 59°F / 15°C 54% 30.04 in
(1017 mb)
SSW 13.8 mph
(SSW 22 kph)
- 10SM
13:35
Clear
75°F / 24°C 59°F / 15°C 57% 30.04 in
(1017 mb)
SSW 10.4 mph
(SSW 17 kph)
- 10SM
13:14
Clear
75°F / 24°C 57°F / 14°C 54% 30.04 in
(1017 mb)
SSW 11.5 mph
(SSW 19 kph)
- 10SM
12:55
Clear
75°F / 24°C 59°F / 15°C 57% 30.04 in
(1017 mb)
SSW 13.8 mph
(SSW 22 kph)
- 10SM
12:35
Clear
73°F / 23°C 59°F / 15°C 61% 30.01 in
(1016 mb)
SW 10.4 mph
(SW 17 kph)
- 10SM
12:14
Clear
73°F / 23°C 59°F / 15°C 61% 30.04 in
(1017 mb)
SSW 10.4 mph
(SSW 17 kph)
- 10SM
11:54
Clear
72°F / 22°C 59°F / 15°C 65% 30.01 in
(1016 mb)
SSW 10.4 mph
(SSW 17 kph)
- 10SM
11:34
Clear
72°F / 22°C 57°F / 14°C 61% 30.01 in
(1016 mb)
SSW 12.7 mph
(SSW 20 kph)
- 10SM
11:14
Clear
72°F / 22°C 59°F / 15°C 65% 30.01 in
(1016 mb)
SSW 9.2 mph
(SSW 15 kph)
- 10SM
10:54
Clear
70°F / 21°C 57°F / 14°C 64% 30.01 in
(1016 mb)
W 10.4 mph
(W 17 kph)
- 10SM
10:34
Clear
70°F / 21°C 57°F / 14°C 64% 30.01 in
(1016 mb)
SSW 6.9 mph
(SSW 11 kph)
- 10SM
10:14
Clear
70°F / 21°C 57°F / 14°C 64% 30.01 in
(1016 mb)
SSW 4.6 mph
(SSW 7 kph)
- 10SM
09:54
Clear
68°F / 20°C 57°F / 14°C 69% 30.01 in
(1016 mb)
W 5.8 mph
(W 9 kph)
- 10SM
09:34
Clear
66°F / 19°C 57°F / 14°C 73% 30.01 in
(1016 mb)
W 4.6 mph
(W 7 kph)
- 10SM
09:15
Clear
66°F / 19°C 57°F / 14°C 73% 30.01 in
(1016 mb)
W 6.9 mph
(W 11 kph)
- 10SM
08:54
Clear
64°F / 18°C 57°F / 14°C 78% 30.01 in
(1016 mb)
W 5.8 mph
(W 9 kph)
- 10SM
08:34
Clear
64°F / 18°C 57°F / 14°C 78% 30.01 in
(1016 mb)
W 5.8 mph
(W 9 kph)
- 10SM
08:15
Clear
63°F / 17°C 57°F / 14°C 83% 29.98 in
(1015 mb)
NW 6.9 mph
(NW 11 kph)
- 10SM
07:54
Clear
63°F / 17°C 55°F / 13°C 77% 29.98 in
(1015 mb)
NW 5.8 mph
(NW 9 kph)
- 10SM
07:34
Clear
61°F / 16°C 57°F / 14°C 88% 29.98 in
(1015 mb)
NW 6.9 mph
(NW 11 kph)
- 10SM
07:15
Clear
59°F / 15°C 55°F / 13°C 88% 29.98 in
(1015 mb)
NW 5.8 mph
(NW 9 kph)
- 7SM
06:54
Partly Cloudy
Fog And Mist
57°F / 14°C 55°F / 13°C 94% 29.98 in
(1015 mb)
NW 5.8 mph
(NW 9 kph)
- 5SM
06:34
Partly Cloudy
Fog And Mist
57°F / 14°C 55°F / 13°C 94% 29.98 in
(1015 mb)
NW 8.1 mph
(NW 13 kph)
- 4SM
06:15
Mostly Cloudy
Fog And Mist
55°F / 13°C 54°F / 12°C 94% 29.95 in
(1014 mb)
NW 9.2 mph
(NW 15 kph)
- 4SM
05:55
Mostly Cloudy
Fog And Mist
55°F / 13°C 54°F / 12°C 94% 29.95 in
(1014 mb)
NW 9.2 mph
(NW 15 kph)
- 4SM
05:34
Partly Cloudy
Fog And Mist
55°F / 13°C 54°F / 12°C 94% 29.95 in
(1014 mb)
NW 8.1 mph
(NW 13 kph)
- 4SM
05:14
Clear
Fog And Mist
54°F / 12°C 54°F / 12°C 100% 29.92 in
(1013 mb)
WNW 5.8 mph
(WNW 9 kph)
- 4SM
04:54
Partly Cloudy
Fog And Mist
55°F / 13°C 54°F / 12°C 94% 29.92 in
(1013 mb)
WNW 6.9 mph
(WNW 11 kph)
- 4SM
04:34
Partly Cloudy
Fog And Mist
55°F / 13°C 54°F / 12°C 94% 29.89 in
(1012 mb)
W 8.1 mph
(W 13 kph)
- 4SM
04:14
Partly Cloudy
55°F / 13°C 54°F / 12°C 94% 29.89 in
(1012 mb)
WNW 8.1 mph
(WNW 13 kph)
- 7SM
03:54
Overcast
55°F / 13°C 54°F / 12°C 94% 29.89 in
(1012 mb)
NW 6.9 mph
(NW 11 kph)
- 10SM
03:34
Overcast
55°F / 13°C 54°F / 12°C 94% 29.89 in
(1012 mb)
NW 10.4 mph
(NW 17 kph)
- 10SM
03:14
Overcast
55°F / 13°C 54°F / 12°C 94% 29.89 in
(1012 mb)
WNW 9.2 mph
(WNW 15 kph)
- 10SM
02:54
Overcast
55°F / 13°C 54°F / 12°C 94% 29.89 in
(1012 mb)
NW 8.1 mph
(NW 13 kph)
- 10SM
02:34
Overcast
55°F / 13°C 54°F / 12°C 94% 29.86 in
(1011 mb)
NW 9.2 mph
(NW 15 kph)
- 10SM
02:15
Overcast
Drizzle
55°F / 13°C 55°F / 13°C 100% 29.86 in
(1011 mb)
WNW 9.2 mph
(WNW 15 kph)
- 7SM
01:54
Overcast
57°F / 14°C 55°F / 13°C 94% 29.86 in
(1011 mb)
WNW 10.4 mph
(WNW 17 kph)
0.01 in
(0.25 mm)
7SM
01:34
Overcast
Fog And Mist
57°F / 14°C 55°F / 13°C 94% 29.86 in
(1011 mb)
WNW 9.2 mph
(WNW 15 kph)
- 5SM
01:14
Overcast
57°F / 14°C 55°F / 13°C 94% 29.86 in
(1011 mb)
WNW 8.1 mph
(WNW 13 kph)
- 10SM
00:54
Overcast
57°F / 14°C 55°F / 13°C 94% 29.83 in
(1010 mb)
WNW 9.2 mph
(WNW 15 kph)
- 7SM
00:35
Overcast
Fog And Mist
57°F / 14°C 55°F / 13°C 94% 29.83 in
(1010 mb)
NW 8.1 mph
(NW 13 kph)
- 4SM
00:14
Overcast
57°F / 14°C 55°F / 13°C 94% 29.83 in
(1010 mb)
NW 10.4 mph
(NW 17 kph)
- 10SM
Time Weather Temperature Dewpoint Humidity Pressure Winds Precip Visibility


Weather for websites

WeatherForYou.com, LLC is not responsible for any damages or problems caused by this service. Current weather conditions are obtained from the closest station including government and personal stations which may have varying degrees of accuracy. Weather forecasts are derived from the NOAA NDFD. Like all things, this site belongs to Jesus Christ... He just trusts us to maintain it. If you have any questions or comments email webmaster@weatherforyou.com

Copyright © 2015, WeatherForYou.com LLC. All rights reserved.